一网星座-0563星 (ONEWEB-0563)

导读 | 豆包AI

ONEWEB-0563是英国OneWeb星座组网中的一颗低轨宽带卫星,于2023年3月9日由SpaceX猎鹰9号火箭发射升空,本次任务共成功部署40颗OneWeb卫星,使OneWeb在轨卫星数量达到582颗,距完成第一代600余颗低轨星座建设仅差一次发射。该卫星运行于低地球轨道,配备Ku波段转发器,为OneWeb提供全球范围互联网接入服务,后续也参与了全球首次低轨卫星5G Advanced非地面网络技术验证,推动星地一体化通信发展。

基本信息
目录编号:
55800
目录名称:
ONEWEB-0563
国际标识:
2023-029E
轨道中心:
EARTH
卫星名称:
一网星座-0563星
卫星全名:
一网星座-0563星 (ONEWEB-0563)
卫星状态:
在轨 (已飞行1122 天)
发射日期:
2023-03-09 UTC
国别 :
英国 (GB)
星等 :
--
轨道信息
数据来源 国际轨道数据 AOE轨道数据
星历时间 2026-04-03T22:18:39+0800
13小时前
查看轨道信息
2026-03-30T09:00:00+0800
5天前
查看轨道信息
半长轴 7559.917km 7559.917km
偏心率 0.0001881 0.0001511
轨道倾角 87.913° 87.910°
近地点辐角 95.029° 99.865°
升交点赤经 289.380° 290.291°
平近点角 265.106° 216.542°
近地点 1180.357km 1180.637km
远地点 1183.203km 1182.923km
周期 109.027分钟 109.027分钟
每日圈数 13.207701 13.207702
详细信息
平衡模式:
三轴稳定
覆盖范围:
全球
运营商:
一网卫星公司
运营商所在国:
英国
制造商(研发单位):
一网卫星公司
制造商所在国:
英国
使用方式:
暂无
卫星简介
OneWeb卫星网络由648颗重约125公斤的微型卫星组成,运行在1200公里的轨道上。 每颗卫星都能够提供至少每秒8千兆位的吞吐量,以使用其高吞吐量的Ku频段有效载荷为家庭和移动平台提供互联网接入。该卫星仍在工作。
2D轨道图
3D轨道图
轨道高度分析图
轨道倾角分析图
轨道综合分析图
查看轨道综合分析图